Stanton, MN

3:38 AM CST on November 22, 2017 (GMT -0600)
Stanton

Weather History for KSYN - March, 2014

Change the Weather History Date:

Sunday, March 2, 2014

  Actual Average (KLVN) Record (KLVN)
Temperature  
Mean Temperature -9 °F -  
Max Temperature 0 °F 33 °F 53 °F (1990)
Min Temperature -18 °F 16 °F -20 °F (2014)
Degree Days  
Heating Degree Days 74    
Moisture  
Dew Point -20 °F    
Average Humidity 57    
Maximum Humidity 77    
Minimum Humidity 45    
Precipitation  
Precipitation 0.00 in - - ()
Sea Level Pressure  
Sea Level Pressure 30.51 in    
Wind  
Wind Speed 8 mph (WNW)    
Max Wind Speed 13 mph    
Max Gust Speed -    
Visibility 9 miles    
Events Snow    
Averages and records for this station are not official NWS values.
T = Trace of Precipitation, MM = Missing Value Source: NWS Daily Summary

Daily Weather History Graph

Daily Weather History Graph

Search for Another Location

Airport or City:

Trip Planner

Search our weather history database for the weather conditions in past years. The results will help you decide how hot, cold, wet, or windy it might be!

Date:

Astronomy

Mar. 02, 2014 Rise Set
Actual Time 6:47 AM CST 6:01 PM CST
Civil Twilight 6:18 AM CST 6:30 PM CST
Nautical Twilight 5:44 AM CST 7:04 PM CST
Astronomical Twilight 5:11 AM CST 7:38 PM CST
Moon 7:14 AM CST (3/2) 8:04 PM CST (3/2)
Length of Visible Light 12h 12m
Length of Day
11h 13m
Waxing Crescent, 3% of the Moon is Illuminated
Mar 2
Waxing Crescent
Mar 8
First Quarter
Mar 16
Full
Mar 23
Last Quarter
Mar 30
New

Hourly Weather History & Observations

Time (CST) Temp. Windchill Dew Point Humidity Pressure Visibility Wind Dir Wind Speed Gust Speed Precip Events Conditions
12:12 AM -5.1 °F -22.5 °F -16.6 °F 58% 30.49 in 10.0 mi WNW 10.4 mph - N/A   Clear
12:31 AM -4.9 °F -22.3 °F -16.4 °F 58% 30.49 in 10.0 mi NW 10.4 mph - N/A   Clear
12:52 AM -4.9 °F -23.2 °F -17.0 °F 56% 30.50 in 10.0 mi NW 11.5 mph - N/A   Scattered Clouds
1:12 AM -5.4 °F -23.0 °F -17.9 °F 55% 30.50 in 10.0 mi NW 10.4 mph - N/A   Scattered Clouds
1:31 AM -6.9 °F -25.7 °F -18.8 °F 56% 30.51 in 10.0 mi NW 11.5 mph - N/A   Clear
1:52 AM -7.8 °F -26.8 °F -19.7 °F 56% 30.50 in 10.0 mi NNW 11.5 mph - N/A   Clear
2:12 AM -9.4 °F -27.9 °F -20.2 °F 59% 30.50 in 10.0 mi NW 10.4 mph - N/A   Clear
2:31 AM -9.0 °F -28.4 °F -20.6 °F 57% 30.50 in 10.0 mi NW 11.5 mph - N/A   Clear
2:52 AM -10.8 °F -29.7 °F -21.5 °F 59% 30.50 in 10.0 mi NW 10.4 mph - N/A   Clear
3:12 AM -11.4 °F -28.0 °F -21.8 °F 60% 30.51 in 10.0 mi NW 8.1 mph - N/A   Clear
3:31 AM -11.2 °F -27.8 °F -22.2 °F 58% 30.50 in 10.0 mi NW 8.1 mph - N/A   Clear
3:52 AM -13.0 °F -28.6 °F -22.9 °F 61% 30.51 in 10.0 mi NW 6.9 mph - N/A   Clear
4:12 AM -13.4 °F -31.7 °F -22.9 °F 62% 30.51 in 10.0 mi NW 9.2 mph - N/A   Clear
4:32 AM -12.1 °F -30.1 °F -23.1 °F 58% 30.52 in 10.0 mi NW 9.2 mph - N/A   Clear
4:52 AM -14.4 °F -26.7 °F -24.3 °F 61% 30.52 in 10.0 mi West 4.6 mph - N/A   Clear
5:12 AM -15.9 °F -36.0 °F -26.3 °F 59% 30.52 in 10.0 mi WNW 10.4 mph - N/A   Clear
5:32 AM -15.5 °F -30.0 °F -26.5 °F 58% 30.52 in 10.0 mi WNW 5.8 mph - N/A   Clear
5:52 AM -16.1 °F -30.6 °F -26.1 °F 60% 30.53 in 10.0 mi West 5.8 mph - N/A   Clear
6:12 AM -17.7 °F -30.5 °F -27.8 °F 60% 30.53 in 10.0 mi WNW 4.6 mph - N/A   Clear
6:32 AM -16.2 °F -28.8 °F -26.7 °F 59% 30.53 in 10.0 mi West 4.6 mph - N/A   Clear
6:51 AM -15.9 °F -30.4 °F -26.3 °F 59% 30.53 in 10.0 mi West 5.8 mph - N/A   Clear
7:12 AM -17.3 °F -32.1 °F -27.4 °F 60% 30.53 in 10.0 mi West 5.8 mph - N/A   Clear
7:32 AM -16.1 °F -30.6 °F -27.4 °F 57% 30.53 in 10.0 mi WNW 5.8 mph - N/A   Clear
7:51 AM -16.2 °F -30.8 °F -27.0 °F 58% 30.55 in 10.0 mi West 5.8 mph - N/A   Clear
8:12 AM -14.4 °F -28.7 °F -26.5 °F 55% 30.55 in 10.0 mi West 5.8 mph - N/A   Clear
8:32 AM -14.4 °F -30.3 °F -26.5 °F 55% 30.55 in 10.0 mi WNW 6.9 mph - N/A   Clear
8:51 AM -13.9 °F -23.7 °F -24.9 °F 58% 30.55 in 10.0 mi West 3.5 mph - N/A   Clear
9:12 AM -12.5 °F -22.1 °F -24.2 °F 56% 30.55 in 10.0 mi West 3.5 mph - N/A   Clear
9:31 AM -11.2 °F -24.8 °F -22.9 °F 56% 30.54 in 10.0 mi NW 5.8 mph - N/A   Clear
9:52 AM -9.8 °F -24.7 °F -22.0 °F 55% 30.54 in 10.0 mi NW 6.9 mph - N/A   Clear
10:12 AM -8.9 °F -23.6 °F -21.8 °F 53% 30.54 in 10.0 mi WNW 6.9 mph - N/A   Clear
10:31 AM -8.0 °F -21.0 °F -21.6 °F 51% 30.54 in 10.0 mi West 5.8 mph - N/A   Clear
10:52 AM -7.1 °F -19.9 °F -21.6 °F 49% 30.54 in 10.0 mi West 5.8 mph - N/A   Clear
11:12 AM -6.7 °F -19.5 °F -21.3 °F 49% 30.54 in 10.0 mi West 5.8 mph - N/A   Clear
11:31 AM -6.2 °F -20.4 °F -21.3 °F 48% 30.55 in 10.0 mi West 6.9 mph - N/A   Clear
11:52 AM -5.3 °F -19.3 °F -21.3 °F 46% 30.55 in 10.0 mi West 6.9 mph - N/A   Clear
12:12 PM -4.2 °F -19.3 °F -20.2 °F 46% 30.55 in 10.0 mi WSW 8.1 mph - N/A   Clear
12:31 PM -3.3 °F -19.3 °F -19.3 °F 46% 30.55 in 10.0 mi West 9.2 mph - N/A   Clear
12:52 PM -2.4 °F -18.2 °F -19.1 °F 45% 30.53 in 10.0 mi West 9.2 mph - N/A   Clear
1:12 PM -1.5 °F -19.0 °F -17.5 °F 47% 30.52 in 3.0 mi WNW 11.5 mph - N/A   Haze
1:32 PM -1.3 °F -18.7 °F -16.6 °F 48% 30.51 in 7.0 mi West 11.5 mph - N/A Snow Light Snow
1:51 PM -1.3 °F -18.7 °F -16.1 °F 50% 30.51 in 0.8 mi West 11.5 mph - N/A Snow Light Snow
2:12 PM -1.1 °F -19.3 °F -15.9 °F 50% 30.50 in 3.0 mi West 12.7 mph - N/A Snow Light Snow
2:31 PM -0.8 °F -18.0 °F -15.7 °F 49% 30.49 in 4.0 mi West 11.5 mph - N/A Snow Light Snow
2:52 PM -0.4 °F -17.6 °F -15.7 °F 49% 30.49 in 7.0 mi West 11.5 mph - N/A Snow Light Snow
3:12 PM -0.4 °F -16.7 °F -15.2 °F 50% 30.49 in 7.0 mi West 10.4 mph - N/A   Clear
3:31 PM 0.1 °F -17.7 °F -15.2 °F 49% 30.50 in 4.0 mi West 12.7 mph - N/A Snow Light Snow
3:52 PM -0.0 °F -16.3 °F -15.0 °F 49% 30.50 in 4.0 mi West 10.4 mph - N/A Snow Light Snow
4:12 PM -0.2 °F -18.2 °F -14.8 °F 50% 30.50 in 10.0 mi West 12.7 mph - N/A   Clear
4:31 PM -0.4 °F -14.7 °F -14.6 °F 51% 30.49 in 10.0 mi West 8.1 mph - N/A   Clear
4:52 PM -0.6 °F -16.0 °F -14.6 °F 52% 30.48 in 10.0 mi West 9.2 mph - N/A   Clear
5:12 PM -1.3 °F -15.7 °F -14.8 °F 53% 30.48 in 10.0 mi West 8.1 mph - N/A   Clear
5:31 PM -1.3 °F -15.7 °F -14.8 °F 53% 30.48 in 10.0 mi West 8.1 mph - N/A   Clear
5:52 PM -2.4 °F -15.8 °F -15.0 °F 55% 30.47 in 10.0 mi West 6.9 mph - N/A   Clear
6:12 PM -2.7 °F -14.8 °F -15.2 °F 55% 30.47 in 10.0 mi West 5.8 mph - N/A   Clear
6:31 PM -2.4 °F -12.7 °F -14.8 °F 56% 30.46 in 10.0 mi West 4.6 mph - N/A   Clear
6:52 PM -2.7 °F -11.0 °F -14.8 °F 56% 30.47 in 10.0 mi West 3.5 mph - N/A   Clear
7:11 PM -7.2 °F - -17.0 °F 63% 30.46 in 10.0 mi Calm Calm - N/A   Clear
7:32 PM -7.4 °F - -17.9 °F 60% 30.46 in 10.0 mi Calm Calm - N/A   Clear
7:52 PM -13.2 °F -25.3 °F -21.3 °F 67% 30.46 in 10.0 mi SW 4.6 mph - N/A   Clear
8:11 PM -9.9 °F -19.2 °F -18.6 °F 66% 30.46 in 10.0 mi West 3.5 mph - N/A   Clear
8:32 PM -14.3 °F -24.1 °F -21.5 °F 70% 30.45 in 10.0 mi SW 3.5 mph - N/A   Clear
8:52 PM -11.4 °F - -18.6 °F 70% 30.46 in 10.0 mi Calm Calm - N/A   Clear
9:11 PM -8.7 °F - -17.7 °F 65% 30.48 in 10.0 mi Calm Calm - N/A   Clear
9:32 PM -8.3 °F -17.3 °F -16.2 °F 68% 30.49 in 10.0 mi SSW 3.5 mph - N/A   Clear
9:52 PM -13.9 °F - -21.3 °F 70% 30.49 in 10.0 mi Calm Calm - N/A   Clear
10:12 PM -11.7 °F - -19.3 °F 69% 30.50 in 10.0 mi Calm Calm - N/A   Clear
10:32 PM -16.2 °F - -22.7 °F 72% 30.50 in 10.0 mi Calm Calm - N/A   Clear
10:51 PM -18.6 °F - -25.6 °F 70% 30.50 in 10.0 mi Calm Calm - N/A   Clear
11:12 PM -18.0 °F - -24.2 °F 74% 30.50 in 10.0 mi Calm Calm - N/A   Clear
11:32 PM -14.6 °F -24.5 °F -20.0 °F 77% 30.50 in 10.0 mi SW 3.5 mph - N/A   Clear
11:52 PM -13.9 °F -23.7 °F -19.7 °F 75% 30.50 in 10.0 mi SW 3.5 mph - N/A   Clear